Pikeville, NC

8:03 AM EST on February 23, 2017 (GMT -0500)
Goldsboro-Wayne Municipal

Weather History for KGWW - January, 2013

Change the Weather History Date:

Tuesday, January 22, 2013

  Actual Average (KGSB) Record (KGSB)
Temperature  
Mean Temperature 34 °F -  
Max Temperature 43 °F 49 °F 78 °F (1999)
Min Temperature 24 °F 31 °F 19 °F (2000)
Degree Days  
Heating Degree Days 31    
Moisture  
Dew Point 11 °F    
Average Humidity 40    
Maximum Humidity 68    
Minimum Humidity 20    
Precipitation  
Precipitation 0.00 in - - ()
Sea Level Pressure  
Sea Level Pressure 30.16 in    
Wind  
Wind Speed 6 mph (NW)    
Max Wind Speed 16 mph    
Max Gust Speed 25 mph    
Visibility 10 miles    
Events      
Averages and records for this station are not official NWS values.
T = Trace of Precipitation, MM = Missing Value Source: NWS Daily Summary

Daily Weather History Graph

Daily Weather History Graph

Search for Another Location

Airport or City:

Trip Planner

Search our weather history database for the weather conditions in past years. The results will help you decide how hot, cold, wet, or windy it might be!

Date:

Astronomy

Jan. 22, 2013 Rise Set
Actual Time 7:17 AM EST 5:29 PM EST
Civil Twilight 6:50 AM EST 5:57 PM EST
Nautical Twilight 6:19 AM EST 6:28 PM EST
Astronomical Twilight 5:49 AM EST 6:58 PM EST
Moon 1:52 PM EST (1/22) 3:36 AM EST (1/22)
Length of Visible Light 11h 06m
Length of Day
10h 12m
Waxing Gibbous, 82% of the Moon is Illuminated
Jan 22
Waxing Gibbous
Jan 26
Full
Feb 3
Last Quarter
Feb 10
New
Feb 17
First Quarter

Hourly Weather History & Observations

Time (EST) Temp. Windchill Dew Point Humidity Pressure Visibility Wind Dir Wind Speed Gust Speed Precip Events Conditions
12:15 AM 44.6 °F 41.4 °F 25.2 °F 46% 29.96 in 10.0 mi West 5.8 mph - N/A   Clear
12:35 AM 44.6 °F 42.2 °F 22.6 °F 42% 29.96 in 10.0 mi West 4.6 mph - N/A   Clear
1:15 AM 41.9 °F 39.0 °F 23.5 °F 48% 29.97 in 10.0 mi West 4.6 mph - N/A   Clear
1:55 AM 41.2 °F 39.2 °F 23.0 °F 48% 29.98 in 10.0 mi West 3.5 mph - N/A   Clear
2:15 AM 41.0 °F - 22.5 °F 48% 29.98 in 10.0 mi Calm Calm - N/A   Clear
2:35 AM 38.3 °F 34.8 °F 23.9 °F 56% 29.99 in 10.0 mi West 4.6 mph - N/A   Clear
2:55 AM 40.3 °F 37.1 °F 20.8 °F 46% 30.00 in 10.0 mi West 4.6 mph - N/A   Clear
3:15 AM 40.1 °F 38.0 °F 20.1 °F 45% 30.01 in 10.0 mi WNW 3.5 mph - N/A   Clear
3:35 AM 39.4 °F 37.2 °F 20.3 °F 46% 30.02 in 10.0 mi NW 3.5 mph - N/A   Clear
3:55 AM 38.5 °F 34.1 °F 20.8 °F 49% 30.01 in 10.0 mi North 5.8 mph - N/A   Clear
4:15 AM 39.0 °F 34.0 °F 18.5 °F 44% 30.02 in 10.0 mi NNW 6.9 mph - N/A   Clear
4:35 AM 37.4 °F 34.9 °F 19.2 °F 48% 30.03 in 10.0 mi North 3.5 mph - N/A   Clear
4:55 AM 37.0 °F 31.6 °F 18.1 °F 46% 30.03 in 10.0 mi North 6.9 mph - N/A   Clear
5:15 AM 36.7 °F 32.0 °F 17.8 °F 46% 30.05 in 10.0 mi NNW 5.8 mph - N/A   Clear
5:35 AM 35.8 °F 31.9 °F 17.6 °F 48% 30.07 in 10.0 mi NNW 4.6 mph - N/A   Clear
5:55 AM 35.2 °F 29.5 °F 16.3 °F 46% 30.08 in 10.0 mi NNW 6.9 mph - N/A   Clear
6:15 AM 34.7 °F 29.6 °F 15.6 °F 46% 30.10 in 10.0 mi North 5.8 mph - N/A   Clear
6:35 AM 34.2 °F 27.5 °F 14.4 °F 44% 30.12 in 10.0 mi North 8.1 mph - N/A   Clear
6:55 AM 33.6 °F 28.4 °F 13.8 °F 44% 30.13 in 10.0 mi North 5.8 mph - N/A   Clear
7:15 AM 32.9 °F 25.9 °F 13.3 °F 44% 30.14 in 10.0 mi North 8.1 mph - N/A   Clear
7:35 AM 32.9 °F 25.3 °F 11.3 °F 41% 30.15 in 10.0 mi North 9.2 mph - N/A   Clear
7:55 AM 32.9 °F 27.5 °F 12.4 °F 43% 30.16 in 10.0 mi North 5.8 mph - N/A   Clear
8:15 AM 33.1 °F 26.1 °F 12.0 °F 42% 30.16 in 10.0 mi North 8.1 mph - N/A   Clear
8:35 AM 33.8 °F 25.8 °F 10.6 °F 38% 30.16 in 10.0 mi NNW 10.4 mph - N/A   Clear
8:55 AM 34.5 °F 27.3 °F 10.6 °F 37% 30.17 in 10.0 mi North 9.2 mph - N/A   Clear
9:15 AM 35.1 °F 27.9 °F 11.3 °F 37% 30.18 in 10.0 mi North 9.2 mph 17.3 mph N/A   Clear
9:35 AM 35.2 °F 27.1 °F 10.0 °F 35% 30.20 in 10.0 mi North 11.5 mph 17.3 mph N/A   Clear
9:55 AM 35.8 °F 30.1 °F 9.3 °F 33% 30.21 in 10.0 mi NNW 6.9 mph 17.3 mph N/A   Clear
10:15 AM 35.8 °F 30.9 °F 9.3 °F 33% 30.21 in 10.0 mi NNW 5.8 mph 19.6 mph N/A   Clear
10:35 AM 37.4 °F 28.9 °F 9.0 °F 31% 30.22 in 10.0 mi NNW 13.8 mph 18.4 mph N/A   Clear
10:55 AM 38.1 °F 31.2 °F 8.8 °F 30% 30.22 in 10.0 mi NW 10.4 mph 19.6 mph N/A   Clear
11:15 AM 37.6 °F 29.6 °F 6.8 °F 28% 30.22 in 10.0 mi NNW 12.7 mph 25.3 mph N/A   Clear
11:55 AM 38.5 °F 31.6 °F 5.5 °F 25% 30.21 in 10.0 mi NW 10.4 mph 16.1 mph N/A   Clear
12:15 PM 38.8 °F 32.6 °F 6.1 °F 26% 30.20 in 10.0 mi NNW 9.2 mph - N/A   Clear
12:35 PM 39.4 °F 32.3 °F 5.9 °F 25% 30.19 in 10.0 mi NNW 11.5 mph 18.4 mph N/A   Clear
12:55 PM 39.6 °F 31.7 °F 5.9 °F 25% 30.18 in 10.0 mi NNW 13.8 mph 18.4 mph N/A   Clear
1:15 PM 40.1 °F 31.6 °F 5.9 °F 24% 30.17 in 10.0 mi NNW 16.1 mph 23.0 mph N/A   Clear
1:35 PM 39.6 °F 32.1 °F 2.8 °F 22% 30.17 in 10.0 mi NNW 12.7 mph 21.9 mph N/A   Clear
1:55 PM 40.5 °F 34.1 °F 3.6 °F 22% 30.17 in 10.0 mi NW 10.4 mph 18.4 mph N/A   Clear
2:15 PM 40.5 °F 34.6 °F 3.4 °F 21% 30.17 in 10.0 mi NW 9.2 mph 20.7 mph N/A   Clear
2:35 PM 40.5 °F 34.6 °F 4.5 °F 22% 30.17 in 10.0 mi NW 9.2 mph - N/A   Clear
3:15 PM 40.8 °F 35.0 °F 3.7 °F 21% 30.17 in 10.0 mi NW 9.2 mph - N/A   Clear
3:35 PM 40.6 °F 34.8 °F 3.2 °F 21% 30.17 in 10.0 mi WNW 9.2 mph 17.3 mph N/A   Clear
3:55 PM 40.8 °F 35.0 °F 3.4 °F 21% 30.18 in 10.0 mi WNW 9.2 mph - N/A   Clear
4:15 PM 40.1 °F 34.1 °F 1.9 °F 20% 30.18 in 10.0 mi West 9.2 mph - N/A   Clear
4:35 PM 39.4 °F 32.7 °F 1.8 °F 21% 30.20 in 10.0 mi WNW 10.4 mph 17.3 mph N/A   Clear
4:55 PM 39.0 °F 35.7 °F 2.7 °F 22% 30.20 in 10.0 mi NW 4.6 mph - N/A   Clear
5:15 PM 37.8 °F 33.3 °F 2.5 °F 23% 30.20 in 10.0 mi NW 5.8 mph - N/A   Clear
5:35 PM 36.5 °F 31.0 °F 2.3 °F 24% 30.21 in 10.0 mi NNW 6.9 mph - N/A   Clear
5:55 PM 35.2 °F 32.4 °F 1.8 °F 24% 30.21 in 10.0 mi NW 3.5 mph - N/A   Clear
6:15 PM 34.2 °F 31.2 °F 3.2 °F 27% 30.21 in 10.0 mi NW 3.5 mph - N/A   Clear
6:35 PM 34.2 °F - 5.0 °F 29% 30.22 in 10.0 mi Calm Calm - N/A   Clear
6:55 PM 30.2 °F - 10.9 °F 45% 30.24 in 10.0 mi Calm Calm - N/A   Clear
7:15 PM 29.3 °F - 9.5 °F 44% 30.24 in 10.0 mi Calm Calm - N/A   Clear
7:35 PM 28.4 °F - 8.2 °F 43% 30.24 in 10.0 mi Calm Calm - N/A   Clear
7:55 PM 27.5 °F - 10.4 °F 49% 30.25 in 10.0 mi Calm Calm - N/A   Clear
8:15 PM 26.6 °F - 11.3 °F 53% 30.25 in 10.0 mi Calm Calm - N/A   Clear
8:35 PM 27.0 °F - 9.0 °F 47% 30.25 in 10.0 mi Calm Calm - N/A   Clear
8:55 PM 26.4 °F - 12.4 °F 55% 30.24 in 10.0 mi Calm Calm - N/A   Clear
9:15 PM 25.7 °F - 15.6 °F 66% 30.25 in 10.0 mi Calm Calm - N/A   Clear
9:35 PM 26.2 °F - 16.9 °F 68% 30.26 in 10.0 mi Calm Calm - N/A   Clear
9:55 PM 26.1 °F - 14.2 °F 61% 30.26 in 10.0 mi Calm Calm - N/A   Clear
10:15 PM 25.5 °F - 14.0 °F 62% 30.27 in 10.0 mi Calm Calm - N/A   Clear
10:35 PM 25.9 °F 21.7 °F 13.3 °F 59% 30.27 in 10.0 mi North 3.5 mph - N/A   Clear
10:55 PM 24.8 °F - 14.0 °F 64% 30.29 in 10.0 mi Calm Calm - N/A   Clear
11:35 PM 25.2 °F - 11.7 °F 57% 30.30 in 10.0 mi Calm Calm - N/A   Clear
11:55 PM 24.3 °F - 14.2 °F 65% 30.30 in 10.0 mi Calm Calm - N/A   Clear